Arlington, WA

8:50 AM PDT on May 26, 2017 (GMT -0700)
Arlington Municipal

Weather History for KAWO - July, 2013

Change the Weather History Date:

Saturday, July 20, 2013

  Actual Average Record
Temperature  
Mean Temperature 63 °F -  
Max Temperature 73 °F 77 °F 82 °F (2003)
Min Temperature 53 °F 48 °F 44 °F (2008)
Degree Days  
Heating Degree Days 2    
Growing Degree Days 13 (Base 50)    
Moisture  
Dew Point 53 °F    
Average Humidity 80    
Maximum Humidity 94    
Minimum Humidity 57    
Precipitation  
Precipitation 0.00 in - - ()
Sea Level Pressure  
Sea Level Pressure 30.06 in    
Wind  
Wind Speed 3 mph (NW)    
Max Wind Speed 12 mph    
Max Gust Speed -    
Visibility 8 miles    
Events      
Averages and records for this station are not official NWS values.
T = Trace of Precipitation, MM = Missing Value Source: NWS Daily Summary

Daily Weather History Graph

Daily Weather History Graph

Search for Another Location

Airport or City:

Trip Planner

Search our weather history database for the weather conditions in past years. The results will help you decide how hot, cold, wet, or windy it might be!

Date:

Astronomy

Jul. 20, 2013 Rise Set
Actual Time 5:30 AM PDT 8:59 PM PDT
Civil Twilight 4:51 AM PDT 9:37 PM PDT
Nautical Twilight 3:59 AM PDT 10:28 PM PDT
Astronomical Twilight 2:50 AM PDT 11:37 PM PDT
Moon 7:06 PM PDT (7/20) 3:16 AM PDT (7/20)
Length of Visible Light 16h 46m
Length of Day
15h 29m
Waxing Gibbous, 94% of the Moon is Illuminated
Jul 20
Waxing Gibbous
Jul 22
Full
Jul 29
Last Quarter
Aug 6
New
Aug 14
First Quarter

Hourly Weather History & Observations

Time (PDT) Temp. Dew Point Humidity Pressure Visibility Wind Dir Wind Speed Gust Speed Precip Events Conditions
12:15 AM 53.6 °F 50.0 °F 88% 30.10 in 10.0 mi Calm Calm - N/A   Clear
12:35 AM 53.6 °F 50.0 °F 88% 30.10 in 10.0 mi NNW 9.2 mph - N/A   Clear
12:55 AM 55.4 °F 51.8 °F 88% 30.10 in 10.0 mi NNW 3.5 mph - N/A   Clear
1:15 AM 53.6 °F 50.0 °F 88% 30.10 in 10.0 mi NNW 8.1 mph - N/A   Partly Cloudy
1:35 AM 53.6 °F 50.0 °F 88% 30.10 in 10.0 mi NNW 4.6 mph - N/A   Clear
1:55 AM 53.6 °F 50.0 °F 88% 30.10 in 10.0 mi Calm Calm - N/A   Partly Cloudy
2:15 AM 53.6 °F 50.0 °F 88% 30.10 in 10.0 mi North - - N/A   Partly Cloudy
2:35 AM 53.6 °F 48.2 °F 82% 30.09 in 10.0 mi North 4.6 mph - N/A   Clear
2:55 AM 53.6 °F 48.2 °F 82% 30.09 in 10.0 mi Calm Calm - N/A   Mostly Cloudy
3:15 AM 53.6 °F 50.0 °F 88% 30.09 in 10.0 mi Calm Calm - N/A   Overcast
3:35 AM 53.6 °F 50.0 °F 88% 30.09 in 10.0 mi North 3.5 mph - N/A   Overcast
3:55 AM 53.6 °F 50.0 °F 88% 30.09 in 10.0 mi North 4.6 mph - N/A   Overcast
4:15 AM 53.6 °F 51.8 °F 94% 30.09 in 10.0 mi NNW 4.6 mph - N/A   Overcast
4:35 AM 53.6 °F 50.0 °F 88% 30.09 in 10.0 mi North 4.6 mph - N/A   Overcast
4:55 AM 53.6 °F 51.8 °F 94% 30.09 in 7.0 mi Calm Calm - N/A   Overcast
5:15 AM 53.6 °F 51.8 °F 94% 30.09 in 3.0 mi Calm Calm - N/A   Overcast
5:35 AM 53.6 °F 50.0 °F 88% 30.09 in 1.2 mi Calm Calm - N/A   Overcast
5:55 AM 53.6 °F 51.8 °F 94% 30.10 in 0.8 mi Calm Calm - N/A   Overcast
6:15 AM 53.6 °F 51.8 °F 94% 30.10 in 1.2 mi Calm Calm - N/A   Overcast
6:35 AM 53.6 °F 51.8 °F 94% 30.11 in 1.0 mi Calm Calm - N/A   Overcast
6:55 AM 53.6 °F 51.8 °F 94% 30.11 in 0.8 mi Calm Calm - N/A   Overcast
7:15 AM 53.6 °F 51.8 °F 94% 30.11 in 1.0 mi Calm Calm - N/A   Overcast
7:35 AM 53.6 °F 51.8 °F 94% 30.11 in 1.0 mi Calm Calm - N/A   Overcast
7:55 AM 53.6 °F 51.8 °F 94% 30.11 in 1.0 mi Calm Calm - N/A   Overcast
8:15 AM 53.6 °F 51.8 °F 94% 30.11 in 2.0 mi Calm Calm - N/A   Overcast
8:35 AM 55.4 °F 51.8 °F 88% 30.12 in 3.0 mi Calm Calm - N/A   Overcast
8:55 AM 55.4 °F 51.8 °F 88% 30.12 in 3.0 mi Calm Calm - N/A   Overcast
9:15 AM 55.4 °F 51.8 °F 88% 30.11 in 5.0 mi Calm Calm - N/A   Overcast
9:35 AM 55.4 °F 51.8 °F 88% 30.12 in 4.0 mi Calm Calm - N/A   Overcast
9:55 AM 55.4 °F 51.8 °F 88% 30.11 in 5.0 mi Calm Calm - N/A   Overcast
10:15 AM 57.2 °F 53.6 °F 88% 30.11 in 10.0 mi Calm Calm - N/A   Overcast
10:35 AM 57.2 °F 53.6 °F 88% 30.11 in 10.0 mi Calm Calm - N/A   Overcast
10:55 AM 57.2 °F 53.6 °F 88% 30.11 in 10.0 mi Calm Calm - N/A   Overcast
11:15 AM 59.0 °F 53.6 °F 82% 30.10 in 10.0 mi Calm Calm - N/A   Overcast
11:35 AM 60.8 °F 53.6 °F 77% 30.10 in 10.0 mi South 3.5 mph - N/A   Overcast
11:55 AM 60.8 °F 53.6 °F 77% 30.10 in 10.0 mi Calm Calm - N/A   Overcast
1:35 PM - - N/A% - - North - - N/A   Unknown
1:55 PM 66.2 °F 55.4 °F 68% 30.07 in 10.0 mi South 3.5 mph - N/A   Scattered Clouds
2:15 PM 69.8 °F 57.2 °F 64% 30.07 in 10.0 mi Calm Calm - N/A   Scattered Clouds
2:35 PM 69.8 °F 57.2 °F 64% 30.07 in 10.0 mi South 4.6 mph - N/A   Overcast
2:55 PM 69.8 °F 57.2 °F 64% 30.06 in 10.0 mi Calm Calm - N/A   Mostly Cloudy
3:15 PM 71.6 °F 57.2 °F 60% 30.05 in 10.0 mi SE 4.6 mph - N/A   Scattered Clouds
3:35 PM 71.6 °F 57.2 °F 60% 30.04 in 10.0 mi West 3.5 mph - N/A   Clear
3:55 PM 73.4 °F 59.0 °F 61% 30.04 in 10.0 mi NNW 6.9 mph - N/A   Clear
4:15 PM 73.4 °F 57.2 °F 57% 30.03 in 10.0 mi NW 4.6 mph - N/A   Clear
4:35 PM 73.4 °F 57.2 °F 57% 30.02 in 10.0 mi North 5.8 mph - N/A   Clear
4:55 PM 73.4 °F 57.2 °F 57% 30.02 in 10.0 mi NNW 8.1 mph - N/A   Clear
5:15 PM 73.4 °F 57.2 °F 57% 30.01 in 10.0 mi NNW 8.1 mph - N/A   Clear
5:35 PM 73.4 °F 57.2 °F 57% 30.00 in 10.0 mi NNW 10.4 mph - N/A   Clear
5:55 PM 73.4 °F 57.2 °F 57% 30.00 in 10.0 mi NW 10.4 mph - N/A   Clear
6:15 PM 71.6 °F 57.2 °F 60% 30.00 in 10.0 mi NW 11.5 mph - N/A   Clear
6:35 PM 71.6 °F 55.4 °F 57% 29.99 in 10.0 mi NW 10.4 mph - N/A   Clear
6:55 PM 69.8 °F 57.2 °F 64% 30.00 in 10.0 mi NW 10.4 mph - N/A   Clear
7:15 PM 69.8 °F 55.4 °F 60% 29.99 in 10.0 mi NW 9.2 mph - N/A   Clear
7:35 PM 68.0 °F 55.4 °F 64% 30.00 in 10.0 mi NW 5.8 mph - N/A   Clear
7:55 PM 66.2 °F 55.4 °F 68% 30.00 in 10.0 mi NW 4.6 mph - N/A   Clear
8:15 PM 64.4 °F 55.4 °F 73% 29.99 in 10.0 mi NW 8.1 mph - N/A   Clear
8:35 PM 62.6 °F 53.6 °F 72% 29.99 in 10.0 mi NW 10.4 mph - N/A   Clear
8:55 PM 60.8 °F 51.8 °F 72% 29.99 in 10.0 mi WNW 10.4 mph - N/A   Clear
9:15 PM 59.0 °F 51.8 °F 77% 30.00 in 10.0 mi NW 10.4 mph - N/A   Clear
9:35 PM 57.2 °F 51.8 °F 82% 30.00 in 10.0 mi NW 8.1 mph - N/A   Clear
9:55 PM 57.2 °F 51.8 °F 82% 30.00 in 10.0 mi NW 5.8 mph - N/A   Clear
10:15 PM 55.4 °F 51.8 °F 88% 30.00 in 10.0 mi NW 5.8 mph - N/A   Clear
10:35 PM 55.4 °F 50.0 °F 82% 30.00 in 10.0 mi NW 5.8 mph - N/A   Clear
10:55 PM 55.4 °F 51.8 °F 88% 30.00 in 10.0 mi NW 5.8 mph - N/A   Clear
11:15 PM 53.6 °F 50.0 °F 88% 30.00 in 10.0 mi NW 5.8 mph - N/A   Clear
11:35 PM 53.6 °F 50.0 °F 88% 29.99 in 10.0 mi NW 6.9 mph - N/A   Clear
11:55 PM 53.6 °F 50.0 °F 88% 29.99 in 9.0 mi NW 6.9 mph - N/A   Clear